| time (UTC) | temp C | wind direction | speed KPH | gust KPH | rain 1hr cm | rain 24hr cm | rain mn cm | humidity % | barometer mb |
| 20260507125944 | 13 | 23 | 6.4 | 17.7 | 0.00 | 0.58 | 0.08 | 58 | 1009.6 |
| 20260507125443 | 13 | 9 | 4.8 | 16.1 | 0.00 | 0.58 | 0.08 | 58 | 1009.6 |
| 20260507124943 | 13 | 56 | 6.4 | 14.5 | 0.00 | 0.58 | 0.08 | 58 | 1009.8 |
| 20260507124446 | 13 | 24 | 4.8 | 12.9 | 0.00 | 0.58 | 0.08 | 58 | 1009.8 |
| 20260507123938 | 13 | 71 | 4.8 | 11.3 | 0.00 | 0.58 | 0.08 | 58 | 1009.9 |
| 20260507123437 | 13 | 4 | 4.8 | 12.9 | 0.00 | 0.58 | 0.08 | 59 | 1010.1 |
| 20260507122434 | 13 | 17 | 3.2 | 16.1 | 0.00 | 0.58 | 0.08 | 60 | 1009.8 |
| 20260507121935 | 13 | 24 | 3.2 | 11.3 | 0.00 | 0.58 | 0.08 | 63 | 1009.7 |
| 20260507121434 | 13 | 23 | 4.8 | 14.5 | 0.00 | 0.58 | 0.08 | 63 | 1009.7 |
| 20260507120928 | 13 | 29 | 6.4 | 14.5 | 0.00 | 0.58 | 0.08 | 63 | 1009.5 |
| 20260507120428 | 13 | 0 | 4.8 | 17.7 | 0.00 | 0.58 | 0.08 | 64 | 1009.7 |
| 20260507115926 | 13 | 24 | 4.8 | 17.7 | 0.00 | 0.58 | 0.08 | 66 | 1009.7 |
| 20260507115427 | 13 | 294 | 4.8 | 16.1 | 0.00 | 0.58 | 0.08 | 70 | 1009.6 |
| 20260507114927 | 13 | 91 | 8.0 | 19.3 | 0.00 | 0.58 | 0.08 | 71 | 1009.4 |
| 20260507114428 | 13 | 40 | 4.8 | 19.3 | 0.00 | 0.58 | 0.08 | 73 | 1009.3 |
| 20260507113928 | 13 | 23 | 0.0 | 4.8 | 0.00 | 0.58 | 0.08 | 78 | 1009.3 |
| 20260507113424 | 13 | 359 | 0.0 | 4.8 | 0.00 | 0.58 | 0.08 | 79 | 1009.4 |
| 20260507112924 | 13 | 332 | 1.6 | 8.0 | 0.00 | 0.58 | 0.08 | 80 | 1009.5 |
| 20260507112422 | 13 | 83 | 1.6 | 8.0 | 0.00 | 0.58 | 0.08 | 80 | 1009.5 |
| 20260507111922 | 13 | 281 | 1.6 | 8.0 | 0.00 | 0.58 | 0.08 | 81 | 1009.3 |
| 20260507111421 | 13 | 34 | 1.6 | 8.0 | 0.00 | 0.58 | 0.08 | 81 | 1009.3 |
| 20260507110920 | 13 | 86 | 1.6 | 9.7 | 0.00 | 0.58 | 0.08 | 81 | 1009.1 |
| 20260507110413 | 13 | 34 | 1.6 | 9.7 | 0.00 | 0.58 | 0.08 | 82 | 1009.2 |
| 20260507105912 | 13 | 68 | 0.0 | 3.2 | 0.00 | 0.58 | 0.08 | 83 | 1009.3 |
| 20260507105411 | 13 | 8 | 0.0 | 4.8 | 0.00 | 0.58 | 0.08 | 83 | 1009.2 |
| 20260507104910 | 13 | 79 | 1.6 | 6.4 | 0.00 | 0.58 | 0.08 | 83 | 1009.0 |
| 20260507103907 | 13 | 44 | 1.6 | 6.4 | 0.00 | 0.58 | 0.08 | 82 | 1009.0 |
| 20260507103404 | 13 | 94 | 1.6 | 9.7 | 0.00 | 0.58 | 0.08 | 83 | 1009.0 |
| 20260507102902 | 13 | 46 | 3.2 | 9.7 | 0.00 | 0.58 | 0.08 | 83 | 1008.9 |
| 20260507102405 | 13 | 46 | 3.2 | 9.7 | 0.00 | 0.58 | 0.08 | 83 | 1008.9 |
| 20260507101905 | 13 | 41 | 3.2 | 8.0 | 0.00 | 0.58 | 0.08 | 83 | 1008.8 |
| 20260507101404 | 13 | 71 | 3.2 | 11.3 | 0.00 | 0.58 | 0.08 | 83 | 1008.7 |
| 20260507100904 | 13 | 76 | 3.2 | 11.3 | 0.00 | 0.58 | 0.08 | 83 | 1008.8 |
| 20260507095400 | 13 | 91 | 1.6 | 4.8 | 0.00 | 0.58 | 0.08 | 83 | 1008.7 |
| 20260507094359 | 13 | 23 | 1.6 | 6.4 | 0.00 | 0.58 | 0.08 | 83 | 1008.7 |
| 20260507093858 | 13 | 11 | 3.2 | 11.3 | 0.00 | 0.58 | 0.08 | 83 | 1008.7 |
| 20260507092359 | 13 | 88 | 3.2 | 12.9 | 0.00 | 0.58 | 0.08 | 83 | 1008.3 |
| 20260507091900 | 13 | 97 | 1.6 | 9.7 | 0.00 | 0.58 | 0.08 | 83 | 1008.5 |
| 20260507091359 | 13 | 36 | 3.2 | 9.7 | 0.00 | 0.58 | 0.08 | 83 | 1008.6 |
| 20260507090856 | 13 | 19 | 3.2 | 11.3 | 0.00 | 0.58 | 0.08 | 83 | 1008.7 |
| 20260507090358 | 13 | 110 | 3.2 | 11.3 | 0.00 | 0.58 | 0.08 | 83 | 1008.6 |
| 20260507085852 | 13 | 60 | 3.2 | 9.7 | 0.00 | 0.58 | 0.08 | 83 | 1008.6 |
| 20260507085346 | 13 | 86 | 3.2 | 14.5 | 0.00 | 0.58 | 0.08 | 83 | 1008.6 |
| 20260507084841 | 13 | 97 | 4.8 | 14.5 | 0.00 | 0.58 | 0.08 | 83 | 1008.4 |
| 20260507084340 | 13 | 46 | 3.2 | 11.3 | 0.00 | 0.58 | 0.08 | 83 | 1008.3 |
| 20260507083842 | 13 | 27 | 3.2 | 14.5 | 0.00 | 0.58 | 0.08 | 84 | 1008.4 |
| 20260507083341 | 13 | 99 | 4.8 | 14.5 | 0.00 | 0.58 | 0.08 | 84 | 1008.6 |
| 20260507082840 | 13 | 8 | 3.2 | 14.5 | 0.00 | 0.58 | 0.08 | 85 | 1008.5 |
| 20260507082343 | 13 | 20 | 1.6 | 14.5 | 0.00 | 0.58 | 0.08 | 86 | 1008.3 |
| 20260507081842 | 13 | 103 | 1.6 | 4.8 | 0.00 | 0.58 | 0.08 | 86 | 1008.2 |
| 20260507080829 | 13 | 70 | 1.6 | 6.4 | 0.00 | 0.58 | 0.08 | 86 | 1007.9 |
| 20260507080325 | 13 | 38 | 3.2 | 11.3 | 0.00 | 0.58 | 0.08 | 85 | 1007.8 |
| 20260507075327 | 13 | 62 | 4.8 | 12.9 | 0.00 | 0.58 | 0.08 | 85 | 1007.7 |
| 20260507074825 | 13 | 24 | 4.8 | 12.9 | 0.00 | 0.58 | 0.08 | 85 | 1007.7 |
| 20260507074325 | 14 | 43 | 3.2 | 12.9 | 0.00 | 0.58 | 0.08 | 84 | 1007.7 |
| 20260507073827 | 14 | 49 | 3.2 | 12.9 | 0.00 | 0.58 | 0.08 | 83 | 1007.5 |
| 20260507073320 | 14 | 79 | 3.2 | 14.5 | 0.00 | 0.58 | 0.08 | 83 | 1007.5 |
| 20260507072814 | 14 | 336 | 4.8 | 17.7 | 0.00 | 0.58 | 0.08 | 82 | 1007.4 |
| 20260507072314 | 14 | 64 | 4.8 | 17.7 | 0.00 | 0.58 | 0.08 | 84 | 1007.5 |
| 20260507071815 | 14 | 18 | 4.8 | 12.9 | 0.00 | 0.58 | 0.08 | 85 | 1007.5 |
| 20260507071315 | 14 | 70 | 4.8 | 12.9 | 0.00 | 0.58 | 0.08 | 86 | 1007.5 |
| 20260507070816 | 14 | 32 | 3.2 | 12.9 | 0.00 | 0.58 | 0.08 | 86 | 1007.4 |
| 20260507070316 | 14 | 31 | 1.6 | 9.7 | 0.00 | 0.58 | 0.08 | 87 | 1007.5 |
| 20260507065810 | 14 | 53 | 1.6 | 12.9 | 0.03 | 0.58 | 0.08 | 88 | 1007.4 |
| 20260507065310 | 14 | 65 | 3.2 | 12.9 | 0.03 | 0.58 | 0.08 | 88 | 1007.3 |
| 20260507064812 | 14 | 65 | 3.2 | 9.7 | 0.03 | 0.58 | 0.08 | 89 | 1007.5 |
| 20260507064312 | 14 | 333 | 3.2 | 12.9 | 0.03 | 0.58 | 0.08 | 89 | 1007.5 |
| 20260507063810 | 14 | 32 | 3.2 | 12.9 | 0.03 | 0.58 | 0.08 | 89 | 1007.6 |
| 20260507063312 | 14 | 113 | 1.6 | 8.0 | 0.03 | 0.58 | 0.08 | 89 | 1007.5 |
| 20260507062806 | 14 | 340 | 3.2 | 14.5 | 0.03 | 0.58 | 0.08 | 89 | 1007.4 |
| 20260507062308 | 14 | 329 | 3.2 | 14.5 | 0.03 | 0.58 | 0.08 | 89 | 1007.3 |
| 20260507061807 | 14 | 69 | 4.8 | 12.9 | 0.03 | 0.58 | 0.08 | 89 | 1007.2 |
| 20260507060808 | 15 | 12 | 1.6 | 14.5 | 0.03 | 0.58 | 0.08 | 88 | 1007.3 |
| 20260507060310 | 15 | 91 | 1.6 | 8.0 | 0.03 | 0.58 | 0.08 | 88 | 1007.2 |
| 20260507055804 | 15 | 23 | 1.6 | 8.0 | 0.00 | 0.56 | 0.05 | 87 | 1007.5 |
| 20260507055306 | 15 | 71 | 1.6 | 6.4 | 0.00 | 0.56 | 0.05 | 87 | 1007.5 |
| 20260507054817 | 15 | 346 | 3.2 | 16.1 | 0.00 | 0.56 | 0.05 | 86 | 1007.5 |
| 20260507054303 | 15 | 23 | 4.8 | 16.1 | 0.03 | 0.56 | 0.05 | 85 | 1007.3 |
| 20260507053802 | 15 | 32 | 4.8 | 14.5 | 0.03 | 0.56 | 0.05 | 86 | 1007.5 |
| 20260507053304 | 15 | 32 | 3.2 | 14.5 | 0.05 | 0.56 | 0.05 | 86 | 1007.6 |
| 20260507052300 | 15 | 12 | 3.2 | 9.7 | 0.05 | 0.56 | 0.05 | 85 | 1007.1 |
| 20260507051759 | 15 | 91 | 1.6 | 8.0 | 0.05 | 0.56 | 0.05 | 84 | 1006.8 |
| 20260507051258 | 15 | 53 | 1.6 | 8.0 | 0.05 | 0.56 | 0.05 | 84 | 1007.2 |
| 20260507050759 | 16 | 85 | 1.6 | 8.0 | 0.05 | 0.56 | 0.05 | 84 | 1007.5 |
| 20260507050259 | 16 | 27 | 1.6 | 11.3 | 0.05 | 0.56 | 0.05 | 83 | 1007.7 |
| 20260507045754 | 16 | 345 | 1.6 | 11.3 | 0.05 | 0.56 | 0.05 | 82 | 1007.6 |
| 20260507045255 | 16 | 309 | 1.6 | 6.4 | 0.05 | 0.56 | 0.05 | 82 | 1007.5 |
| 20260507044755 | 16 | 311 | 0.0 | 6.4 | 0.05 | 0.56 | 0.05 | 80 | 1007.7 |
| 20260507044255 | 16 | 76 | 1.6 | 9.7 | 0.03 | 0.53 | 0.03 | 79 | 1007.3 |
| 20260507043754 | 16 | 76 | 3.2 | 9.7 | 0.03 | 0.53 | 0.03 | 78 | 1007.5 |
| 20260507042750 | 17 | 300 | 3.2 | 11.3 | 0.00 | 0.51 | 0.00 | 75 | 1007.7 |
| 20260507042251 | 17 | 24 | 4.8 | 16.1 | 0.00 | 0.51 | 0.00 | 74 | 1007.5 |
| 20260507041752 | 17 | 43 | 3.2 | 16.1 | 0.00 | 0.51 | 0.00 | 77 | 1007.5 |
| 20260507041252 | 17 | 37 | 1.6 | 8.0 | 0.00 | 0.51 | 0.00 | 81 | 1007.6 |
| 20260507040750 | 17 | 65 | 1.6 | 8.0 | 0.00 | 0.51 | 0.00 | 81 | 1007.3 |
| 20260507040252 | 17 | 324 | 1.6 | 9.7 | 0.00 | 0.51 | 0.00 | 81 | 1007.3 |
| 20260507035745 | 17 | 24 | 3.2 | 9.7 | 0.00 | 0.51 | 0.51 | 81 | 1007.1 |
| 20260507035247 | 17 | 348 | 4.8 | 11.3 | 0.00 | 0.51 | 0.51 | 80 | 1006.9 |
| 20260507034746 | 18 | 350 | 4.8 | 11.3 | 0.00 | 0.51 | 0.51 | 79 | 1007.1 |
| 20260507034248 | 18 | 5 | 6.4 | 16.1 | 0.00 | 0.51 | 0.51 | 77 | 1007.1 |
| 20260507033745 | 18 | 29 | 4.8 | 17.7 | 0.00 | 0.51 | 0.51 | 75 | 1007.1 |
| 20260507033247 | 18 | 11 | 3.2 | 17.7 | 0.00 | 0.51 | 0.51 | 74 | 1007.2 |
| 20260507032742 | 18 | 82 | 1.6 | 6.4 | 0.00 | 0.51 | 0.51 | 73 | 1006.9 |
| 20260507032242 | 18 | 342 | 1.6 | 9.7 | 0.00 | 0.51 | 0.51 | 73 | 1007.0 |
| 20260507031745 | 18 | 340 | 3.2 | 11.3 | 0.00 | 0.51 | 0.51 | 73 | 1006.9 |
| 20260507031243 | 18 | 322 | 3.2 | 14.5 | 0.00 | 0.51 | 0.51 | 72 | 1006.6 |
| 20260507030741 | 18 | 339 | 4.8 | 14.5 | 0.00 | 0.51 | 0.51 | 73 | 1006.4 |
| 20260507025737 | 18 | 53 | 4.8 | 16.1 | 0.00 | 0.51 | 0.51 | 75 | 1006.5 |
| 20260507025238 | 18 | 341 | 6.4 | 17.7 | 0.00 | 0.51 | 0.51 | 75 | 1006.6 |
| 20260507024738 | 19 | 30 | 8.0 | 17.7 | 0.00 | 0.51 | 0.51 | 75 | 1006.7 |
| 20260507024237 | 19 | 49 | 6.4 | 22.5 | 0.00 | 0.51 | 0.51 | 76 | 1006.6 |
| 20260507023735 | 19 | 15 | 4.8 | 22.5 | 0.00 | 0.51 | 0.51 | 76 | 1006.4 |
| 20260507022731 | 20 | 31 | 4.8 | 14.5 | 0.00 | 0.51 | 0.51 | 77 | 1006.1 |
| 20260507022233 | 20 | 24 | 6.4 | 14.5 | 0.00 | 0.51 | 0.51 | 78 | 1006.1 |
| 20260507021730 | 20 | 1 | 6.4 | 14.5 | 0.00 | 0.51 | 0.51 | 78 | 1006.3 |
| 20260507021231 | 20 | 11 | 6.4 | 16.1 | 0.00 | 0.51 | 0.51 | 78 | 1006.1 |
| 20260507020731 | 20 | 37 | 4.8 | 16.1 | 0.00 | 0.51 | 0.51 | 79 | 1006.0 |
| 20260507020230 | 20 | 41 | 3.2 | 12.9 | 0.00 | 0.51 | 0.51 | 81 | 1005.9 |
| 20260507015728 | 21 | 62 | 1.6 | 11.3 | 0.00 | 0.51 | 0.51 | 80 | 1005.9 |
| 20260507015228 | 21 | 327 | 1.6 | 9.7 | 0.00 | 0.51 | 0.51 | 79 | 1005.9 |
| 20260507014225 | 21 | 250 | 0.0 | 0.0 | 0.00 | 0.51 | 0.51 | 79 | 1005.8 |
| 20260507013725 | 21 | 250 | 0.0 | 0.0 | 0.00 | 0.51 | 0.51 | 79 | 1005.9 |
| 20260507013218 | 21 | 251 | 1.6 | 4.8 | 0.00 | 0.51 | 0.51 | 79 | 1006.0 |
| 20260507012716 | 21 | 210 | 1.6 | 6.4 | 0.00 | 0.51 | 0.51 | 79 | 1005.9 |
| 20260507012215 | 21 | 209 | 1.6 | 6.4 | 0.00 | 0.51 | 0.51 | 78 | 1006.1 |
| 20260507011715 | 21 | 214 | 0.0 | 3.2 | 0.00 | 0.51 | 0.51 | 78 | 1006.1 |
| 20260507011216 | 21 | 229 | 0.0 | 1.6 | 0.00 | 0.51 | 0.51 | 78 | 1006.1 |
| 20260507010711 | 21 | 233 | 0.0 | 1.6 | 0.00 | 0.51 | 0.51 | 78 | 1006.2 |
| 20260507010213 | 21 | 229 | 0.0 | 3.2 | 0.00 | 0.51 | 0.51 | 78 | 1006.2 |
| 20260507005713 | 21 | 235 | 1.6 | 6.4 | 0.00 | 0.51 | 0.51 | 78 | 1006.1 |
| 20260507005211 | 21 | 225 | 1.6 | 6.4 | 0.00 | 0.51 | 0.51 | 78 | 1006.0 |
| 20260507004210 | 21 | 217 | 0.0 | 3.2 | 0.00 | 0.51 | 0.51 | 79 | 1005.8 |
| 20260507003709 | 21 | 207 | 0.0 | 3.2 | 0.00 | 0.51 | 0.51 | 79 | 1005.8 |
| 20260507003209 | 21 | 204 | 0.0 | 3.2 | 0.00 | 0.51 | 0.51 | 79 | 1005.9 |
| 20260507002201 | 21 | 221 | 0.0 | 3.2 | 0.00 | 0.51 | 0.51 | 78 | 1005.7 |
| 20260507001701 | 21 | 212 | 0.0 | 3.2 | 0.00 | 0.51 | 0.51 | 78 | 1005.6 |
| 20260507001158 | 21 | 248 | 0.0 | 4.8 | 0.00 | 0.51 | 0.51 | 78 | 1005.6 |
| 20260507000659 | 21 | 212 | 0.0 | 4.8 | 0.00 | 0.51 | 0.51 | 78 | 1005.6 |
| 20260507000158 | 21 | 296 | 0.0 | 6.4 | 0.00 | 0.51 | 0.51 | 78 | 1005.7 |
| 20260506235655 | 21 | 309 | 0.0 | 6.4 | 0.00 | 0.51 | 0.51 | 78 | 1005.6 |
| 20260506235153 | 21 | 200 | 1.6 | 6.4 | 0.00 | 0.51 | 0.51 | 78 | 1005.5 |
| 20260506234152 | 21 | 228 | 1.6 | 8.0 | 0.00 | 0.51 | 0.51 | 78 | 1005.3 |
| 20260506233649 | 21 | 215 | 0.0 | 8.0 | 0.00 | 0.51 | 0.51 | 78 | 1005.3 |
| 20260506233150 | 21 | 204 | 1.6 | 9.7 | 0.00 | 0.51 | 0.51 | 78 | 1005.3 |
| 20260506232149 | 21 | 188 | 3.2 | 9.7 | 0.00 | 0.51 | 0.51 | 78 | 1005.3 |
| 20260506231646 | 21 | 222 | 3.2 | 8.0 | 0.00 | 0.51 | 0.51 | 78 | 1005.1 |
| 20260506231145 | 21 | 203 | 3.2 | 9.7 | 0.00 | 0.51 | 0.51 | 77 | 1005.1 |
| 20260506230641 | 21 | 257 | 1.6 | 9.7 | 0.00 | 0.51 | 0.51 | 78 | 1005.2 |
| 20260506230142 | 21 | 174 | 3.2 | 12.9 | 0.00 | 0.51 | 0.51 | 77 | 1005.0 |
| 20260506225643 | 21 | 207 | 4.8 | 12.9 | 0.00 | 0.51 | 0.51 | 77 | 1004.9 |
| 20260506224643 | 21 | 180 | 4.8 | 11.3 | 0.00 | 0.51 | 0.51 | 78 | 1005.0 |
| 20260506223636 | 21 | 172 | 6.4 | 14.5 | 0.00 | 0.51 | 0.51 | 77 | 1005.1 |
| 20260506223135 | 21 | 245 | 6.4 | 20.9 | 0.00 | 0.51 | 0.51 | 76 | 1005.1 |
| 20260506222633 | 21 | 238 | 6.4 | 20.9 | 0.00 | 0.51 | 0.51 | 76 | 1004.8 |
| 20260506222132 | 21 | 219 | 4.8 | 16.1 | 0.00 | 0.51 | 0.51 | 76 | 1004.9 |
| 20260506221125 | 21 | 177 | 8.0 | 17.7 | 0.00 | 0.51 | 0.51 | 76 | 1005.0 |
| 20260506220127 | 21 | 206 | 6.4 | 19.3 | 0.00 | 0.51 | 0.51 | 76 | 1004.9 |
| 20260506215625 | 21 | 260 | 4.8 | 17.7 | 0.00 | 0.51 | 0.51 | 76 | 1005.0 |
| 20260506215126 | 21 | 173 | 6.4 | 20.9 | 0.00 | 0.51 | 0.51 | 76 | 1004.9 |
| 20260506214626 | 21 | 235 | 8.0 | 20.9 | 0.00 | 0.51 | 0.51 | 76 | 1005.0 |
| 20260506214127 | 21 | 205 | 8.0 | 22.5 | 0.00 | 0.51 | 0.51 | 76 | 1005.1 |
| 20260506213619 | 21 | 153 | 6.4 | 22.5 | 0.00 | 0.51 | 0.51 | 75 | 1005.1 |
| 20260506213119 | 21 | 204 | 4.8 | 22.5 | 0.00 | 0.51 | 0.51 | 76 | 1005.0 |
| 20260506212619 | 21 | 263 | 9.7 | 25.7 | 0.00 | 0.51 | 0.51 | 76 | 1005.0 |
| 20260506212120 | 21 | 177 | 9.7 | 25.7 | 0.00 | 0.51 | 0.51 | 75 | 1004.8 |
| 20260506211120 | 21 | 179 | 6.4 | 17.7 | 0.00 | 0.51 | 0.51 | 75 | 1004.9 |
| 20260506210620 | 21 | 203 | 6.4 | 17.7 | 0.00 | 0.51 | 0.51 | 75 | 1004.7 |
| 20260506210115 | 21 | 204 | 8.0 | 20.9 | 0.00 | 0.51 | 0.51 | 75 | 1004.6 |
| 20260506205615 | 21 | 153 | 8.0 | 20.9 | 0.00 | 0.51 | 0.51 | 75 | 1004.6 |
| 20260506205114 | 21 | 187 | 8.0 | 20.9 | 0.00 | 0.51 | 0.51 | 75 | 1004.7 |
| 20260506204613 | 21 | 221 | 6.4 | 16.1 | 0.00 | 0.51 | 0.51 | 75 | 1004.6 |
| 20260506204113 | 21 | 333 | 8.0 | 17.7 | 0.00 | 0.51 | 0.51 | 75 | 1004.6 |
| 20260506203613 | 21 | 250 | 8.0 | 19.3 | 0.00 | 0.51 | 0.51 | 75 | 1004.4 |
| 20260506203114 | 21 | 359 | 8.0 | 19.3 | 0.00 | 0.51 | 0.51 | 75 | 1004.5 |
| 20260506202610 | 21 | 219 | 8.0 | 19.3 | 0.00 | 0.51 | 0.51 | 74 | 1004.6 |
| 20260506202110 | 21 | 201 | 6.4 | 22.5 | 0.00 | 0.51 | 0.51 | 75 | 1004.6 |
| 20260506201609 | 21 | 243 | 8.0 | 22.5 | 0.00 | 0.51 | 0.51 | 76 | 1004.5 |
| 20260506201109 | 21 | 208 | 11.3 | 24.1 | 0.00 | 0.51 | 0.51 | 77 | 1004.6 |
| 20260506200111 | 21 | 255 | 8.0 | 20.9 | 0.00 | 0.51 | 0.51 | 76 | 1004.8 |
| 20260506195610 | 21 | 212 | 8.0 | 19.3 | 0.00 | 0.51 | 0.51 | 76 | 1004.7 |
| 20260506195103 | 21 | 206 | 8.0 | 19.3 | 0.00 | 0.51 | 0.51 | 77 | 1004.8 |
| 20260506194603 | 21 | 158 | 8.0 | 19.3 | 0.00 | 0.51 | 0.51 | 76 | 1004.8 |
| 20260506194104 | 21 | 255 | 9.7 | 20.9 | 0.00 | 0.51 | 0.51 | 77 | 1004.8 |
| 20260506193605 | 21 | 238 | 8.0 | 20.9 | 0.00 | 0.51 | 0.51 | 76 | 1004.8 |
| 20260506193103 | 21 | 226 | 8.0 | 29.0 | 0.00 | 0.51 | 0.51 | 77 | 1004.7 |
| 20260506192603 | 21 | 199 | 11.3 | 29.0 | 0.00 | 0.51 | 0.51 | 76 | 1005.0 |
| 20260506192100 | 21 | 330 | 11.3 | 29.0 | 0.00 | 0.51 | 0.51 | 76 | 1004.8 |
| 20260506191557 | 21 | 172 | 9.7 | 29.0 | 0.00 | 0.51 | 0.51 | 76 | 1004.9 |
| 20260506191057 | 21 | 225 | 8.0 | 24.1 | 0.00 | 0.51 | 0.51 | 77 | 1005.1 |
| 20260506190557 | 20 | 202 | 4.8 | 22.5 | 0.00 | 0.51 | 0.51 | 77 | 1005.1 |
| 20260506190058 | 20 | 191 | 8.0 | 22.5 | 0.00 | 0.51 | 0.51 | 78 | 1005.1 |
| 20260506185558 | 20 | 326 | 9.7 | 25.7 | 0.00 | 0.51 | 0.51 | 78 | 1005.2 |
| 20260506185057 | 20 | 204 | 9.7 | 25.7 | 0.00 | 0.51 | 0.51 | 78 | 1005.3 |
| 20260506184555 | 20 | 231 | 8.0 | 24.1 | 0.00 | 0.51 | 0.51 | 78 | 1005.2 |
| 20260506183555 | 20 | 221 | 8.0 | 17.7 | 0.00 | 0.51 | 0.51 | 78 | 1005.3 |
| 20260506183053 | 20 | 160 | 8.0 | 20.9 | 0.00 | 0.51 | 0.51 | 78 | 1005.4 |
| 20260506182553 | 20 | 210 | 6.4 | 20.9 | 0.00 | 0.51 | 0.51 | 78 | 1005.5 |
| 20260506182053 | 20 | 233 | 6.4 | 17.7 | 0.00 | 0.51 | 0.51 | 78 | 1005.5 |
| 20260506181556 | 20 | 229 | 8.0 | 25.7 | 0.00 | 0.51 | 0.51 | 78 | 1005.5 |
| 20260506181052 | 20 | 271 | 9.7 | 27.4 | 0.00 | 0.51 | 0.51 | 78 | 1005.5 |
| 20260506180554 | 20 | 236 | 9.7 | 27.4 | 0.00 | 0.51 | 0.51 | 78 | 1005.7 |
| 20260506180049 | 20 | 155 | 8.0 | 24.1 | 0.00 | 0.51 | 0.51 | 78 | 1005.6 |
| 20260506175549 | 20 | 192 | 6.4 | 20.9 | 0.00 | 0.51 | 0.51 | 79 | 1005.6 |
| 20260506175050 | 20 | 212 | 8.0 | 25.7 | 0.00 | 0.51 | 0.51 | 81 | 1005.7 |
| 20260506174550 | 19 | 5 | 9.7 | 25.7 | 0.00 | 0.51 | 0.51 | 80 | 1005.9 |
| 20260506174051 | 19 | 203 | 6.4 | 17.7 | 0.00 | 0.51 | 0.51 | 81 | 1005.8 |
| 20260506173545 | 19 | 239 | 6.4 | 20.9 | 0.00 | 0.51 | 0.51 | 81 | 1005.8 |
| 20260506173046 | 19 | 210 | 9.7 | 20.9 | 0.00 | 0.51 | 0.51 | 82 | 1005.8 |
| 20260506172546 | 19 | 248 | 9.7 | 25.7 | 0.00 | 0.51 | 0.51 | 82 | 1005.8 |
| 20260506172047 | 18 | 221 | 9.7 | 25.7 | 0.00 | 0.51 | 0.51 | 82 | 1005.8 |
| 20260506171545 | 18 | 238 | 9.7 | 27.4 | 0.00 | 0.51 | 0.51 | 82 | 1006.0 |
| 20260506171044 | 18 | 195 | 9.7 | 27.4 | 0.00 | 0.51 | 0.51 | 83 | 1005.9 |
| 20260506170537 | 18 | 243 | 11.3 | 32.2 | 0.00 | 0.51 | 0.51 | 83 | 1006.1 |
| 20260506170039 | 18 | 186 | 12.9 | 32.2 | 0.00 | 0.51 | 0.51 | 83 | 1006.0 |
| 20260506165540 | 18 | 211 | 11.3 | 32.2 | 0.00 | 0.51 | 0.51 | 83 | 1006.1 |
| 20260506164538 | 18 | 183 | 11.3 | 30.6 | 0.00 | 0.51 | 0.51 | 85 | 1005.9 |
| 20260506164037 | 18 | 215 | 11.3 | 27.4 | 0.00 | 0.51 | 0.51 | 86 | 1006.1 |
| 20260506163533 | 18 | 212 | 11.3 | 27.4 | 0.00 | 0.51 | 0.51 | 86 | 1006.1 |
| 20260506163032 | 18 | 204 | 12.9 | 35.4 | 0.00 | 0.51 | 0.51 | 87 | 1006.1 |
| 20260506162532 | 18 | 186 | 11.3 | 35.4 | 0.00 | 0.51 | 0.51 | 87 | 1006.1 |
| 20260506161532 | 17 | 159 | 9.7 | 30.6 | 0.05 | 0.51 | 0.51 | 88 | 1006.1 |
| 20260506160527 | 17 | 158 | 11.3 | 35.4 | 0.08 | 0.51 | 0.51 | 89 | 1006.2 |
| 20260506160027 | 17 | 312 | 11.3 | 35.4 | 0.08 | 0.51 | 0.51 | 90 | 1006.1 |
| 20260506155526 | 17 | 222 | 8.0 | 24.1 | 0.10 | 0.51 | 0.51 | 91 | 1006.2 |
| 20260506155027 | 17 | 191 | 9.7 | 27.4 | 0.10 | 0.51 | 0.51 | 91 | 1006.4 |
| 20260506154527 | 17 | 266 | 9.7 | 27.4 | 0.13 | 0.51 | 0.51 | 92 | 1006.5 |
| 20260506153521 | 17 | 192 | 8.0 | 17.7 | 0.13 | 0.51 | 0.51 | 93 | 1006.6 |
| 20260506153022 | 16 | 190 | 9.7 | 25.7 | 0.15 | 0.51 | 0.51 | 92 | 1006.5 |
| 20260506152523 | 16 | 198 | 8.0 | 25.7 | 0.15 | 0.51 | 0.51 | 92 | 1006.4 |
| 20260506151521 | 16 | 222 | 6.4 | 19.3 | 0.15 | 0.46 | 0.46 | 92 | 1006.8 |
| 20260506151021 | 16 | 200 | 8.0 | 19.3 | 0.18 | 0.43 | 0.46 | 91 | 1006.9 |
| 20260506150518 | 16 | 232 | 6.4 | 20.9 | 0.20 | 0.43 | 0.43 | 91 | 1007.0 |
| 20260506145517 | 16 | 211 | 6.4 | 19.3 | 0.20 | 0.41 | 0.43 | 91 | 1007.2 |
| 20260506144514 | 16 | 245 | 6.4 | 19.3 | 0.25 | 0.38 | 0.38 | 91 | 1007.2 |
| 20260506144015 | 16 | 176 | 8.0 | 19.3 | 0.28 | 0.38 | 0.38 | 91 | 1007.2 |
| 20260506143008 | 16 | 155 | 8.0 | 17.7 | 0.30 | 0.36 | 0.36 | 91 | 1007.3 |
| 20260506142008 | 16 | 160 | 4.8 | 14.5 | 0.30 | 0.33 | 0.33 | 90 | 1007.2 |
| 20260506141519 | 16 | 238 | 4.8 | 19.3 | 0.28 | 0.30 | 0.30 | 90 | 1007.1 |
| 20260506141008 | 16 | 187 | 6.4 | 19.3 | 0.23 | 0.25 | 0.28 | 89 | 1007.2 |
| 20260506140502 | 17 | 240 | 4.8 | 14.5 | 0.20 | 0.23 | 0.23 | 89 | 1007.4 |
| 20260506140001 | 17 | 198 | 6.4 | 14.5 | 0.20 | 0.20 | 0.20 | 89 | 1007.2 |
| 20260506135504 | 17 | 197 | 6.4 | 17.7 | 0.20 | 0.20 | 0.20 | 88 | 1007.2 |
| 20260506135002 | 17 | 187 | 6.4 | 17.7 | 0.15 | 0.15 | 0.15 | 88 | 1007.4 |
| 20260506134503 | 17 | 170 | 4.8 | 19.3 | 0.13 | 0.13 | 0.13 | 87 | 1007.4 |
| 20260506134001 | 17 | 138 | 4.8 | 19.3 | 0.10 | 0.10 | 0.10 | 86 | 1007.5 |
| 20260506133458 | 17 | 200 | 6.4 | 20.9 | 0.08 | 0.08 | 0.08 | 85 | 1007.6 |
| 20260506132958 | 17 | 27 | 6.4 | 20.9 | 0.05 | 0.05 | 0.05 | 84 | 1007.7 |
| 20260506132457 | 17 | 284 | 6.4 | 19.3 | 0.03 | 0.03 | 0.03 | 83 | 1007.7 |
| 20260506131957 | 17 | 120 | 6.4 | 19.3 | 0.03 | 0.03 | 0.03 | 83 | 1007.7 |
| 20260506131456 | 17 | 221 | 8.0 | 20.9 | 0.03 | 0.03 | 0.03 | 82 | 1007.6 |
| 20260506130958 | 17 | 193 | 6.4 | 20.9 | 0.03 | 0.03 | 0.03 | 81 | 1007.4 |